Location: Glencliff
(36.1226°N, 86.7183°W)
Time: 04:42:13
(UTC+00:00)

Meteor 1-13 Rocket - Pass Details

Date: 25 August 2019
Orbit: 830 x 912 km, 81.3° (Epoch: 21 September)

Event Time Altitude Azimuth Distance (km) Brightness Sun altitude
Rises 01:43:46 0° 357° (N) 3,439 7.8 -15.6°
Reaches altitude 10° 01:46:16 10° 2° (N) 2,511 7.0 -16.0°
Maximum altitude 01:51:49 51° 78° (ENE) 1,091 4.5 -17.0°
Enters shadow 01:54:56 26° 142° (SE) 1,682 5.2 -17.6°
